METAR Formatted Surface Weather Observation
Issued by NWS

Home | Current Version | Previous Version | Text Only | Print | Product List | Glossary On
Versions: 1 2 3 4 5 6 7 8 9 10 11 12 13 14 15 16 17 18 19 20 21 22 23 24 25 26 27 28 29 30 31 32 33 34 35 36 37 38 39 40 41 42 43 44 45 46 47 48 49 50
000
SAUS45 KPSR 171158
MTRALK
METAR KALK 171156Z AUTO 27007KT 10SM FEW041 03/02 A2989 RMK AO2
RAE14 SLP073 P0001 60004 70004 T00330022 10106 20033 50000



USA.gov is the U.S. government's official web portal to all federal, state and local government web resources and services.